[[{"header":{"parameterUnit":"m.s-1","parameterCategory":1,"la1":30.2991,"la2":30.254,"lo1":-89.0895,"lo2":-89.0444,"dy":0.0017,"dx":0.0017,"nx":28,"ny":28,"refTime":"2024-11-29T09:00:00:Z","depth":0,"parameterNumber":2,"parameterNumberName":"U-component_of_WINDS"},"data":[0,0,0,0,0,0,0,0,0,0,0,0,0,0,0,0,0,0,0,0,0,0,0,0,0,0,0,0,0,0,0,0,0,0,0,0,0,0,0,0,0,0,0,0,0,0,0,0,0,0,0,0,0,0,0,0,0,0,-1.845,-1.845,0,-1.8491,-1.8492,-1.8492,-1.8476,-1.8475,-1.8474,-1.8474,-1.8513,-1.8515,-1.8517,0,0,0,0,0,0,0,0,0,0,0,0,0,-1.8353,-1.8355,-1.845,-1.845,-1.8451,-1.8491,-1.8492,-1.8492,-1.8476,-1.8475,-1.8474,-1.8473,-1.8513,-1.8515,-1.8517,0,0,0,0,0,0,0,0,0,0,0,0,0,-1.8395,-1.8355,-1.845,-1.8448,-1.8448,-1.8491,-1.8492,-1.8493,-1.8477,-1.8475,-1.8474,-1.8473,-1.8512,-1.8515,-1.8518,-1.8564,0,0,-1.8527,-1.8528,0,0,0,0,0,0,0,0,-1.8392,-1.8398,-1.8447,-1.8448,-1.8448,-1.8477,-1.8472,-1.8516,-1.8477,-1.8466,-1.8473,-1.8472,-1.8502,-1.8506,-1.8517,-1.8566,-1.8568,-1.8527,-1.8529,-1.853,-1.8531,0,0,0,0,0,0,0,-1.839,-1.8396,-1.8466,-1.8448,-1.8449,-1.8444,-1.8448,-1.8481,-1.8491,-1.8467,-1.8466,-1.8471,-1.8502,-1.8514,-1.8518,-1.8568,-1.8527,-1.8529,-1.8531,-1.8532,-1.8656,-1.8658,0,0,0,0,0,0,-1.8387,-1.8394,-1.8465,-1.8467,-1.8416,-1.8447,-1.8451,-1.8469,-1.8491,-1.8493,-1.8472,-1.847,-1.851,-1.8514,-1.8519,-1.8573,-1.853,-1.8533,-1.8534,-1.8655,-1.8656,-1.8658,0,0,0,0,0,0,-1.8385,-1.8393,-1.8463,-1.843,-1.8439,-1.845,-1.847,-1.8471,-1.8483,-1.8495,-1.8497,-1.8482,-1.8509,-1.8515,-1.8553,-1.8574,-1.8534,-1.8537,-1.8653,-1.8655,-1.8657,-1.8683,0,0,0,0,0,0,-1.8382,-1.8393,-1.8411,-1.8431,-1.8441,-1.8497,-1.8471,-1.8473,-1.8488,-1.8486,-1.8505,-1.8507,-1.8508,-1.8549,-1.8556,-1.8578,-1.8539,-1.8651,-1.8654,-1.8657,-1.8681,-1.8686,-1.8691,0,0,0,0,0,-1.8379,-1.8417,-1.8412,-1.8421,-1.8464,-1.8499,-1.8504,-1.8505,-1.849,-1.8508,-1.8516,-1.8506,-1.8571,-1.8553,-1.8561,-1.8584,-1.8649,-1.8653,-1.8656,-1.8678,-1.8685,-1.8691,0,0,0,0,0,0,-1.8398,-1.8419,-1.8415,-1.846,-1.8478,-1.8496,-1.8519,-1.8513,-1.8534,-1.8531,-1.8531,-1.8536,-1.8575,-1.8583,-1.8562,-1.8629,-1.8608,-1.8613,-1.8622,-1.8628,-1.8634,-1.863,-1.8541,0,0,0,0,0,-1.8408,-1.8435,-1.8452,-1.849,-1.85,-1.8508,-1.8523,-1.8522,-1.854,-1.8547,-1.8558,-1.8575,-1.8599,-1.8614,-1.8637,-1.8682,-1.8685,-1.8702,-1.8707,-1.8712,-1.8716,-1.8738,-1.8745,-1.8669,-1.8669,-1.8669,0,0,-1.8428,-1.8443,-1.846,-1.8495,-1.8508,-1.8535,-1.8514,-1.8543,-1.8563,-1.8551,-1.8587,-1.8596,-1.8615,-1.8656,-1.8675,-1.8664,-1.8737,-1.8716,-1.8719,-1.8721,-1.8743,-1.875,-1.8756,-1.8672,-1.8671,-1.8671,0,0,-1.8478,-1.8493,-1.8526,-1.854,-1.8561,-1.8566,-1.8574,-1.8593,-1.8599,-1.8636,-1.8627,-1.865,-1.8692,-1.8705,-1.8717,-1.8772,-1.8763,-1.8779,-1.8806,-1.8828,-1.8834,-1.8839,-1.8857,-1.8864,-1.8784,-1.8784,-1.8784,0,-1.85,-1.8541,-1.8543,-1.8573,-1.8588,-1.858,-1.8612,-1.8626,-1.8653,-1.8663,-1.8651,-1.8703,-1.8715,-1.8759,-1.8772,-1.8783,-1.879,-1.8776,-1.8833,-1.8839,-1.8844,-1.886,-1.8867,-1.8785,-1.8785,-1.8785,-1.8785,0,-1.8566,-1.8594,-1.8618,-1.8645,-1.8663,-1.8694,-1.87,-1.8717,-1.8716,-1.8722,-1.8758,-1.8773,-1.8798,-1.8809,-1.8807,-1.8851,-1.8844,-1.8833,-1.8811,-1.8852,-1.8868,-1.8875,-1.8788,-1.8787,-1.8787,-1.8786,0,0,-1.8628,-1.8656,-1.8665,-1.8676,-1.8699,-1.872,-1.8751,-1.8776,-1.879,-1.8809,-1.8833,-1.8869,-1.8859,-1.8873,-1.8872,-1.8892,-1.8932,-1.8879,-1.8879,-1.8886,-1.898,-1.8987,-1.8994,-1.8928,-1.8929,-1.893,-1.8978,0,-1.8678,-1.8732,-1.8735,-1.8783,-1.8808,-1.8801,-1.8827,-1.8843,-1.885,-1.8871,-1.8878,-1.8903,-1.8889,-1.8897,-1.8916,-1.8923,-1.8951,-1.892,-1.8948,-1.8949,-1.8942,-1.9003,-1.901,-1.9054,-1.8984,-1.8985,-1.8986,0,-1.8743,-1.8765,-1.8816,-1.8834,-1.8845,-1.8868,-1.8891,-1.8912,-1.893,-1.8933,-1.8949,-1.8946,-1.8975,-1.8954,-1.8994,-1.8973,-1.8985,-1.899,-1.8992,-1.8993,-1.8968,-1.9003,-1.9069,-1.9075,-1.8996,-1.8995,-1.8994,0,-1.8781,-1.8823,-1.8858,-1.8869,-1.8891,-1.8908,-1.8918,-1.8934,-1.8949,-1.8969,-1.8978,-1.9001,-1.9013,-1.903,-1.9033,-1.9018,-1.9072,-1.9052,-1.9074,-1.9074,-1.9084,-1.9083,-1.915,-1.9095,-1.9095,-1.9095,-1.9095,0,-1.8835,-1.8866,-1.8875,-1.8897,-1.8931,-1.8934,-1.8967,-1.8976,-1.8991,-1.9013,-1.9008,-1.9029,-1.9032,-1.9053,-1.9056,-1.9087,-1.9093,-1.9095,-1.9095,-1.9095,-1.9094,-1.9101,-1.9097,-1.9097,-1.9096,-1.9096,-1.9096,0,-1.8882,-1.889,-1.8928,-1.8946,-1.8952,-1.8976,-1.8991,-1.9011,-1.9017,-1.9045,-1.9052,-1.9062,-1.9086,-1.9091,-1.912,-1.9122,-1.9158,-1.9156,-1.9152,-1.9151,-1.9173,-1.917,-1.9245,-1.9254,-1.9195,-1.9196,-1.9196,0,-1.8915,-1.8939,-1.896,-1.8975,-1.8986,-1.901,-1.9025,-1.9029,-1.9045,-1.9066,-1.9083,-1.9108,-1.9127,-1.9167,-1.9175,-1.9197,-1.9194,-1.9219,-1.9197,-1.9195,-1.9192,-1.919,-1.9191,-1.9222,-1.9223,-1.9223,-1.9224,0,-1.8973,-1.8975,-1.8998,-1.9021,-1.904,-1.9058,-1.9076,-1.9088,-1.9094,-1.9112,-1.9137,-1.9152,-1.9182,-1.9205,-1.9227,-1.9236,-1.923,-1.9231,-1.9237,-1.9235,-1.9231,-1.9232,-1.9161,-1.9229,-1.9228,-1.9228,-1.9228,-1.9227,-1.9012,-1.9032,-1.905,-1.9075,-1.9089,-1.9105,-1.9125,-1.9134,-1.9155,-1.918,-1.9181,-1.9208,-1.9224,-1.9253,-1.9264,-1.9284,-1.9276,-1.9285,-1.9287,-1.9289,-1.929,-1.923,-1.9288,-1.9288,-1.9288,-1.9288,-1.9288,0,-1.9068,-1.9079,-1.9102,-1.9127,-1.9146,-1.9141,-1.916,-1.9175,-1.92,-1.9216,-1.9235,-1.9264,-1.9286,-1.9297,-1.9319,-1.9333,-1.9331,-1.9339,-1.9337,-1.9338,-1.9297,-1.9288,-1.934,-1.934,-1.934,-1.934,-1.934,-1.934,-1.9099,-1.9132,-1.9137,-1.9176,-1.9187,-1.9214,-1.9225,-1.924,-1.9252,-1.9285,-1.9304,-1.9311,-1.9324,-1.9347,-1.9367,-1.937,-1.9377,-1.9386,-1.9387,-1.9347,-1.9342,-1.9336,-1.9328,-1.9388,-1.9388,-1.9426,-1.9427,-1.9427]},{"header":{"parameterUnit":"m.s-1","parameterCategory":1,"la1":30.2991,"la2":30.254,"lo1":-89.0895,"lo2":-89.0444,"dy":0.0017,"dx":0.0017,"nx":28,"ny":28,"refTime":"2024-11-29T09:00:00:Z","depth":0,"parameterNumber":3,"parameterNumberName":"V-component_of_WINDS"},"data":[0,0,0,0,0,0,0,0,0,0,0,0,0,0,0,0,0,0,0,0,0,0,0,0,0,0,0,0,0,0,0,0,0,0,0,0,0,0,0,0,0,0,0,0,0,0,0,0,0,0,0,0,0,0,0,0,0,0,-1.1462,-1.1462,0,-1.1475,-1.1475,-1.1475,-1.1492,-1.1493,-1.1493,-1.1493,-1.1506,-1.1506,-1.1506,0,0,0,0,0,0,0,0,0,0,0,0,0,-1.1453,-1.1453,-1.1462,-1.1462,-1.1463,-1.1475,-1.1475,-1.1475,-1.1492,-1.1493,-1.1493,-1.1493,-1.1506,-1.1506,-1.1506,0,0,0,0,0,0,0,0,0,0,0,0,0,-1.1461,-1.1453,-1.1462,-1.1473,-1.1474,-1.1475,-1.1475,-1.1475,-1.1492,-1.1493,-1.1493,-1.1493,-1.1506,-1.1506,-1.1506,-1.1498,0,0,-1.1506,-1.1506,0,0,0,0,0,0,0,0,-1.146,-1.1461,-1.1471,-1.1472,-1.1473,-1.1482,-1.1476,-1.1483,-1.1492,-1.1485,-1.1493,-1.1494,-1.1498,-1.1499,-1.15,-1.1499,-1.1499,-1.1506,-1.1507,-1.1507,-1.1507,0,0,0,0,0,0,0,-1.146,-1.146,-1.1467,-1.1471,-1.1472,-1.1477,-1.1478,-1.1478,-1.1489,-1.1486,-1.1487,-1.1488,-1.1498,-1.15,-1.15,-1.1499,-1.1506,-1.1507,-1.1507,-1.1507,-1.1492,-1.1491,0,0,0,0,0,0,-1.1458,-1.146,-1.1467,-1.1468,-1.1468,-1.1476,-1.1478,-1.1479,-1.1489,-1.1491,-1.1488,-1.1489,-1.1499,-1.15,-1.1501,-1.1492,-1.1507,-1.1507,-1.1507,-1.1492,-1.1492,-1.1491,0,0,0,0,0,0,-1.1457,-1.1458,-1.1466,-1.1464,-1.1466,-1.1476,-1.1477,-1.1479,-1.148,-1.1491,-1.1493,-1.1487,-1.15,-1.1501,-1.1499,-1.1493,-1.1507,-1.1507,-1.1493,-1.1492,-1.1492,-1.1474,0,0,0,0,0,0,-1.1457,-1.1458,-1.1455,-1.1464,-1.1466,-1.1464,-1.1477,-1.1479,-1.1481,-1.1482,-1.1491,-1.1492,-1.15,-1.1498,-1.1499,-1.1493,-1.1507,-1.1493,-1.1493,-1.1492,-1.1475,-1.1473,-1.1471,0,0,0,0,0,-1.1457,-1.1449,-1.1455,-1.1455,-1.1462,-1.1463,-1.1464,-1.1474,-1.148,-1.1477,-1.1484,-1.1492,-1.1493,-1.1498,-1.1499,-1.1493,-1.1494,-1.1493,-1.1492,-1.1476,-1.1473,-1.1471,0,0,0,0,0,0,-1.1439,-1.1451,-1.1457,-1.1452,-1.1457,-1.1466,-1.1463,-1.147,-1.1473,-1.1474,-1.1486,-1.1488,-1.1484,-1.1488,-1.1493,-1.1485,-1.1495,-1.1494,-1.1483,-1.148,-1.1478,-1.1477,-1.1507,0,0,0,0,0,-1.1435,-1.1435,-1.1445,-1.144,-1.1442,-1.1452,-1.1453,-1.146,-1.1465,-1.1467,-1.1473,-1.1478,-1.1479,-1.148,-1.1482,-1.1476,-1.1478,-1.1472,-1.147,-1.1468,-1.1467,-1.1464,-1.1461,-1.1488,-1.1488,-1.1488,0,0,-1.1426,-1.1432,-1.1432,-1.1437,-1.1441,-1.1441,-1.1454,-1.1453,-1.1453,-1.1467,-1.1465,-1.147,-1.1476,-1.1471,-1.147,-1.1475,-1.146,-1.1467,-1.1465,-1.1465,-1.1462,-1.146,-1.1458,-1.1487,-1.1487,-1.1487,0,0,-1.141,-1.1415,-1.1411,-1.1415,-1.1421,-1.1428,-1.1427,-1.1435,-1.1439,-1.1438,-1.1448,-1.1448,-1.145,-1.1454,-1.1456,-1.1441,-1.1449,-1.1441,-1.143,-1.1426,-1.1424,-1.1422,-1.1416,-1.1414,-1.144,-1.144,-1.144,0,-1.1398,-1.1398,-1.1408,-1.1407,-1.1409,-1.1421,-1.1418,-1.1421,-1.1428,-1.1428,-1.1434,-1.1437,-1.1442,-1.1438,-1.1435,-1.1436,-1.1435,-1.144,-1.1424,-1.1422,-1.142,-1.1415,-1.1413,-1.1439,-1.1439,-1.1439,-1.1439,0,-1.1383,-1.1383,-1.1379,-1.1385,-1.1386,-1.1384,-1.1394,-1.1394,-1.1401,-1.1407,-1.1405,-1.1411,-1.1414,-1.1414,-1.1421,-1.1411,-1.1414,-1.1422,-1.1431,-1.1417,-1.1412,-1.141,-1.1438,-1.1438,-1.1438,-1.1439,0,0,-1.1356,-1.1367,-1.1366,-1.1368,-1.1376,-1.1376,-1.1374,-1.1377,-1.1377,-1.1381,-1.138,-1.1381,-1.1388,-1.139,-1.1398,-1.1395,-1.1382,-1.1402,-1.1403,-1.1398,-1.1372,-1.1366,-1.1363,-1.1387,-1.1387,-1.1387,-1.1371,0,-1.134,-1.1337,-1.1347,-1.1341,-1.1341,-1.1353,-1.1351,-1.1356,-1.1362,-1.1362,-1.1368,-1.1369,-1.1378,-1.138,-1.1377,-1.1384,-1.1377,-1.1385,-1.1385,-1.1385,-1.1383,-1.1361,-1.1354,-1.134,-1.1369,-1.1369,-1.1369,0,-1.1322,-1.1325,-1.132,-1.1328,-1.1328,-1.1326,-1.133,-1.133,-1.1336,-1.134,-1.1342,-1.1351,-1.1349,-1.1359,-1.1356,-1.1362,-1.1363,-1.1366,-1.1365,-1.1365,-1.1376,-1.136,-1.1335,-1.1333,-1.1366,-1.1366,-1.1366,0,-1.1302,-1.1305,-1.1302,-1.1304,-1.1313,-1.1312,-1.1316,-1.1321,-1.1323,-1.1326,-1.1327,-1.1329,-1.1331,-1.1333,-1.1341,-1.1348,-1.1338,-1.1348,-1.1341,-1.1341,-1.1338,-1.1338,-1.1313,-1.1339,-1.1339,-1.134,-1.134,0,-1.1284,-1.128,-1.1293,-1.1291,-1.1287,-1.1298,-1.1294,-1.1299,-1.1304,-1.1303,-1.1314,-1.1313,-1.1325,-1.1325,-1.1332,-1.1328,-1.1329,-1.1332,-1.1334,-1.1331,-1.1331,-1.1331,-1.1333,-1.1339,-1.1339,-1.1339,-1.1339,0,-1.1261,-1.127,-1.1267,-1.1276,-1.1278,-1.1275,-1.1283,-1.1281,-1.1287,-1.1286,-1.1287,-1.1296,-1.1297,-1.1306,-1.1309,-1.1314,-1.1308,-1.1312,-1.1306,-1.1307,-1.1299,-1.13,-1.1273,-1.127,-1.1299,-1.1298,-1.1298,0,-1.1248,-1.1246,-1.1254,-1.1255,-1.1258,-1.1258,-1.1259,-1.127,-1.1271,-1.1277,-1.1274,-1.1276,-1.1278,-1.1279,-1.1286,-1.1288,-1.1292,-1.1283,-1.1292,-1.1289,-1.1291,-1.1291,-1.1291,-1.128,-1.128,-1.128,-1.128,0,-1.1225,-1.1229,-1.1231,-1.1234,-1.1235,-1.1238,-1.1241,-1.1241,-1.1252,-1.1253,-1.1254,-1.1255,-1.1258,-1.1259,-1.1263,-1.1267,-1.1275,-1.1276,-1.1275,-1.1271,-1.1268,-1.1269,-1.13,-1.1277,-1.1277,-1.1277,-1.1277,-1.1278,-1.1207,-1.1205,-1.121,-1.1212,-1.1215,-1.1218,-1.1217,-1.1223,-1.1224,-1.1228,-1.1234,-1.1234,-1.1239,-1.1244,-1.1248,-1.1248,-1.1252,-1.125,-1.125,-1.1249,-1.1247,-1.1268,-1.1248,-1.1248,-1.1249,-1.1249,-1.1249,0,-1.1183,-1.1188,-1.1189,-1.1193,-1.1194,-1.1202,-1.1206,-1.1206,-1.1206,-1.121,-1.1212,-1.1213,-1.1215,-1.1222,-1.1224,-1.1223,-1.1226,-1.1223,-1.1223,-1.1224,-1.1243,-1.1244,-1.122,-1.122,-1.122,-1.122,-1.122,-1.122,-1.1171,-1.1168,-1.1174,-1.1172,-1.1177,-1.1177,-1.1179,-1.1181,-1.1185,-1.1185,-1.1187,-1.1192,-1.1197,-1.12,-1.1201,-1.1204,-1.1204,-1.1199,-1.1202,-1.122,-1.1222,-1.1225,-1.1226,-1.1199,-1.1199,-1.1183,-1.1183,-1.1183]}]]